Location: Newark
(42.8481°N, 0.4872°E)
Time: 09:25:33
(UTC+00:00)

A-11 Canister half - Pass Details

Date: 03 November 2020
Orbit: 1516 x 1684 km, 47.2° (Epoch: 04 December)

Event Time Altitude Azimuth Distance (km) Brightness Sun altitude
Rises 18:15:21 0° 229° (SW) 4,919 12.6 -16.5°
Reaches altitude 10° 18:18:31 10° 226° (SW) 3,938 11.9 -17.1°
Maximum altitude 18:28:33 68° 147° (SSE) 1,781 9.2 -18.9°
Enters shadow 18:34:45 27° 72° (ENE) 2,812 9.8 -20.0°
